{"data":{"norad_id":65525,"intl_designator":"2025-200F","name":"STARLINK-35057","alt_names":[],"object_type":"PAYLOAD","status":"ACTIVE","operator":null,"country":"US","launch_date":"2025-09-06","launch_site_code":"AFWTR","launch_vehicle":null,"mission":null,"orbit_class":"UNKNOWN","rcs_meters":null,"size_class":null,"mass_kg":null,"dimensions":null,"purposes":["comms"],"wikipedia_slug":null,"has_3d_model":false,"image_url":null,"decayed_at":null,"tle_current":{"epoch":"2026-09-20T22:41:55.516416Z","epoch_age_seconds":73464,"freshness":"FRESH","line1":"1 65525U 25200F   26263.94578144  .00010828  00000+0  33719-3 0  9997","line2":"2 65525  97.2875 330.3850 0000675  91.7885 268.3435 15.33452043 58713","mean_motion":15.33452043,"eccentricity":6.75e-5,"inclination_deg":97.2875,"raan_deg":330.385,"arg_perigee_deg":91.7885,"mean_anomaly_deg":268.3435,"bstar":0.00033719,"rev_number":5871,"period_min":93.905773354531,"perigee_km":465.06027254819,"apogee_km":465.98416654283,"semimajor_km":6843.6592195455,"source":"CELESTRAK","updated_at":"2026-09-21T09:00:35.648484Z"}}}